FENGYUN 1C DEB, 30326

Orbit data source: Space-Track

FENGYUN 1C DEB, 30326 is space debris in SSO originally from a launch on Mon, 10 May 1999 UTC launched from the Taiyaun Space Center, China (TSC). Fengyun 1C debris stems from the Chinese weather satellite Fengyun-1C, which was intentionally destroyed by a Chinese anti-satellite missile in 2007. This event dramatically increased the amount of space debris, with thousands of trackable fragments posing hazards to satellites and human spaceflight. The Fengyun 1C debris cloud has become a focal point in discussions about space sustainability and the need for international regulations to prevent the creation of new debris.

Loading next visibility...
Identifier
30326, 1999-025AAM
Orbit
SSO
Country
Flag of CNCN / PRC
Related business
Manufacturer
Unknown
Mission
Spacecraft
Bus & Motor
Unknown
Mass
Unknown
Launch date (UTC)
1999-05-10 (27 years ago)
Launch vehicle
Unknown
Launch site
Taiyaun Space Center, China (TSC)
Object type
Payload
Rocket body
Debris
Shape & HBR
Unknown shape, 0.1 m
Radar Cross Section
Small (<0.1 m²)

Expand to show TLE details & history
Last TLE update: 8 hours ago

TLE from 8 hours ago
0 FENGYUN 1C DEB
1 30326U 99025AAM 26144.91441033  .00000085  00000-0  10218-3 0  9999
2 30326  98.6341  24.6709 0140781 305.8090  53.0052 13.85544180977154
Epoch: 2026-05-24T21:56Z
TLE epoch observation values (Epoch: 2026-05-24T21:56:45.052Z)
Latitude
-0.00004°
Longitude
172.97347°
Altitude
886.053 km
Speed
7.44 km/s
True Right ascension
01h 38m 41s
True Declination
0° 00' 00"
Sunlit
Object was in daylight at epoch
Visualization orbit readout
Latitude
Unknown
Longitude
Unknown
Altitude
Unknown
Speed
Unknown
Apparent Right ascension
Unknown
Apparent Declination
Unknown
Sunlit
N/A
Visualization observer readout
Local Sidereal Time
15:35:10
Azimuth
Unknown
Elevation
Unknown
Doppler factor
Unknown
Orbital elements
Apogee altitude
1,044.535 km
Perigee altitude
838.442 km
Semi-major axis
7,319.625 km
Eccentricity
0.01408
Inclination
98.6341°
RAAN
24.6709°
Arg. of periapsis
305.809°
True anomaly
54.30734°
Mean anomaly
53.0052°
Eccentric anomaly
53.6549°
Mean motion
3.46585 °/min
Orbital period
103.87 mins
BSTAR
0.00010218
Loading maneuver chart data...
Computing Atmospheric mass density...

Documentation

Showing up to 5 results
|